User: anonymous   Login
Location: Unspecified
(0.0000°N, 0.0000°E)
Time: 03:31:15
(UTC+00:00)
Language:

LO-87 - Orbit

View from above orbital plane
View from above orbital plane
View from above satellite
View from above satellite

Ground track
Ground track

The orbit data is extracted from the following two-line orbital elements,

1 41557U 16033B   17173.78023019 +.00001372 +00000-0 +54397-4 0  9999
2 41557 097.4632 253.2972 0013999 354.8930 005.2164 15.27060348059286
Epoch (UTC): 22 June 2017 18:43:31
Eccentricity: 0.0013999
inclination: 97.4632°
perigee height: 475 km
apogee height: 494 km
right ascension of ascending node: 253.2972°
argument of perigee: 354.8930°
revolutions per day: 15.27060348
mean anomaly at epoch: 5.2164°
orbit number at epoch: 5928

The dashed part of the orbit path shows where the satellite is in the earth's shadow,  

DLR